Year,Month,Day,Hour,Minute,Value (Times are PST for temperature in C)
2015,09,23,00,00,8.50
2015,09,23,00,01,8.50
2015,09,23,00,02,8.60
2015,09,23,00,03,8.60
2015,09,23,00,04,8.60
2015,09,23,00,05,8.60
2015,09,23,00,06,8.60
2015,09,23,00,07,8.60
2015,09,23,00,08,8.60
2015,09,23,00,09,8.60
2015,09,23,00,10,8.60
2015,09,23,00,11,8.60
2015,09,23,00,12,8.60
2015,09,23,00,13,8.60
2015,09,23,00,14,8.60
2015,09,23,00,15,8.60
2015,09,23,00,16,8.60
2015,09,23,00,17,8.60
2015,09,23,00,18,8.60
2015,09,23,00,19,8.60
2015,09,23,00,20,8.60
2015,09,23,00,21,8.60
2015,09,23,00,22,8.60
2015,09,23,00,23,8.60
2015,09,23,00,24,8.60
2015,09,23,00,25,8.60
2015,09,23,00,26,8.60
2015,09,23,00,27,8.60
2015,09,23,00,28,8.60
2015,09,23,00,29,8.60
2015,09,23,00,30,8.60
2015,09,23,00,31,8.60
2015,09,23,00,32,8.70
2015,09,23,00,33,8.70
2015,09,23,00,34,8.70
2015,09,23,00,35,8.70
2015,09,23,00,36,8.70
2015,09,23,00,37,8.70
2015,09,23,00,38,8.70
2015,09,23,00,39,8.70
2015,09,23,00,40,8.70
2015,09,23,00,41,8.70
2015,09,23,00,42,8.70
2015,09,23,00,43,8.70
2015,09,23,00,44,8.70
2015,09,23,00,45,8.70
2015,09,23,00,46,8.70
2015,09,23,00,47,8.70
2015,09,23,00,48,8.70
2015,09,23,00,49,8.70
2015,09,23,00,50,8.70
2015,09,23,00,51,8.70
2015,09,23,00,52,8.70
2015,09,23,00,53,8.70
2015,09,23,00,54,8.70
2015,09,23,00,55,8.70
2015,09,23,00,56,8.70
2015,09,23,00,57,8.70
2015,09,23,00,58,8.70
2015,09,23,00,59,8.70
2015,09,23,01,00,8.70
2015,09,23,01,01,8.70
2015,09,23,01,02,8.70
2015,09,23,01,03,8.70
2015,09,23,01,04,8.70
2015,09,23,01,05,8.70
2015,09,23,01,06,8.70
2015,09,23,01,07,8.70
2015,09,23,01,08,8.70
2015,09,23,01,09,8.70
2015,09,23,01,10,8.70
2015,09,23,01,11,8.70
2015,09,23,01,12,8.70
2015,09,23,01,13,8.70
2015,09,23,01,14,8.70
2015,09,23,01,15,8.70
2015,09,23,01,16,8.70
2015,09,23,01,17,8.70
2015,09,23,01,18,8.70
2015,09,23,01,19,8.70
2015,09,23,01,20,8.60
2015,09,23,01,21,8.60
2015,09,23,01,22,8.60
2015,09,23,01,23,8.70
2015,09,23,01,24,8.70
2015,09,23,01,25,8.70
2015,09,23,01,26,8.70
2015,09,23,01,27,8.70
2015,09,23,01,28,8.80
2015,09,23,01,29,8.80
2015,09,23,01,30,8.80
2015,09,23,01,31,8.80
2015,09,23,01,32,8.80
2015,09,23,01,33,8.80
2015,09,23,01,34,8.80
2015,09,23,01,35,8.80
2015,09,23,01,36,8.80
2015,09,23,01,37,8.80
2015,09,23,01,38,8.80
2015,09,23,01,39,8.80
2015,09,23,01,40,8.80
2015,09,23,01,41,8.80
2015,09,23,01,42,8.80
2015,09,23,01,43,8.70
2015,09,23,01,44,8.70
2015,09,23,01,45,8.70
2015,09,23,01,46,8.70
2015,09,23,01,47,8.70
2015,09,23,01,48,8.70
2015,09,23,01,49,8.70
2015,09,23,01,50,8.70
2015,09,23,01,51,8.70
2015,09,23,01,52,8.60
2015,09,23,01,53,8.60
2015,09,23,01,54,8.60
2015,09,23,01,55,8.60
2015,09,23,01,56,8.60
2015,09,23,01,57,8.60
2015,09,23,01,58,8.60
2015,09,23,01,59,8.60
2015,09,23,02,00,8.60
2015,09,23,02,01,8.50
2015,09,23,02,02,8.50
2015,09,23,02,03,8.50
2015,09,23,02,04,8.50
2015,09,23,02,05,8.50
2015,09,23,02,06,8.50
2015,09,23,02,07,8.50
2015,09,23,02,08,8.50
2015,09,23,02,09,8.50
2015,09,23,02,10,8.50
2015,09,23,02,11,8.50
2015,09,23,02,12,8.60
2015,09,23,02,13,8.60
2015,09,23,02,14,8.60
2015,09,23,02,15,8.60
2015,09,23,02,16,8.50
2015,09,23,02,17,8.50
2015,09,23,02,18,8.50
2015,09,23,02,19,8.50
2015,09,23,02,20,8.50
2015,09,23,02,21,8.50
2015,09,23,02,22,8.40
2015,09,23,02,23,8.40
2015,09,23,02,24,8.40
2015,09,23,02,25,8.40
2015,09,23,02,26,8.40
2015,09,23,02,27,8.40
2015,09,23,02,28,8.30
2015,09,23,02,29,8.30
2015,09,23,02,30,8.30
2015,09,23,02,31,8.30
2015,09,23,02,32,8.30
2015,09,23,02,33,8.30
2015,09,23,02,34,8.30
2015,09,23,02,35,8.20
2015,09,23,02,36,8.20
2015,09,23,02,37,8.20
2015,09,23,02,38,8.20
2015,09,23,02,39,8.20
2015,09,23,02,40,8.20
2015,09,23,02,41,8.20
2015,09,23,02,42,8.20
2015,09,23,02,43,8.20
2015,09,23,02,44,8.20
2015,09,23,02,45,8.20
2015,09,23,02,46,8.10
2015,09,23,02,47,8.10
2015,09,23,02,48,8.10
2015,09,23,02,49,8.10
2015,09,23,02,50,8.10
2015,09,23,02,51,8.10
2015,09,23,02,52,8.10
2015,09,23,02,53,8.10
2015,09,23,02,54,8.10
2015,09,23,02,55,8.10
2015,09,23,02,56,8.10
2015,09,23,02,57,8.10
2015,09,23,02,58,8.10
2015,09,23,02,59,8.10
2015,09,23,03,00,8.10
2015,09,23,03,01,8.10
2015,09,23,03,02,8.10
2015,09,23,03,06,8.10
2015,09,23,03,07,8.10
2015,09,23,03,08,8.10
2015,09,23,03,09,8.10
2015,09,23,03,10,8.10
2015,09,23,03,11,8.10
2015,09,23,03,12,8.10
2015,09,23,03,13,8.10
2015,09,23,03,14,8.10
2015,09,23,03,15,8.10
2015,09,23,03,16,8.10
2015,09,23,03,17,8.10
2015,09,23,03,18,8.10
2015,09,23,03,19,8.10
2015,09,23,03,20,8.10
2015,09,23,03,21,8.10
2015,09,23,03,22,8.10
2015,09,23,03,23,8.10
2015,09,23,03,24,8.10
2015,09,23,03,25,8.10
2015,09,23,03,26,8.10
2015,09,23,03,27,8.10
2015,09,23,03,28,8.10
2015,09,23,03,29,8.10
2015,09,23,03,30,8.10
2015,09,23,03,31,8.10
2015,09,23,03,32,8.10
2015,09,23,03,33,8.20
2015,09,23,03,34,8.40
2015,09,23,03,35,8.50
2015,09,23,03,36,8.60
2015,09,23,03,37,8.60
2015,09,23,03,38,8.70
2015,09,23,03,39,8.80
2015,09,23,03,40,8.80
2015,09,23,03,41,8.90
2015,09,23,03,42,8.90
2015,09,23,03,43,9.00
2015,09,23,03,44,9.10
2015,09,23,03,45,9.20
2015,09,23,03,46,9.20
2015,09,23,03,47,9.20
2015,09,23,03,48,9.10
2015,09,23,03,49,9.10
2015,09,23,03,50,9.10
2015,09,23,03,51,9.00
2015,09,23,03,52,8.90
2015,09,23,03,53,8.90
2015,09,23,03,54,8.90
2015,09,23,03,55,8.90
2015,09,23,03,56,9.00
2015,09,23,03,57,9.00
2015,09,23,03,58,9.10
2015,09,23,03,59,9.10
2015,09,23,04,00,9.10
2015,09,23,04,01,9.10
2015,09,23,04,02,9.10
2015,09,23,04,03,9.10
2015,09,23,04,04,9.20
2015,09,23,04,05,9.20
2015,09,23,04,06,9.20
2015,09,23,04,07,9.20
2015,09,23,04,08,9.20
2015,09,23,04,09,9.20
2015,09,23,04,10,9.20
2015,09,23,04,11,9.20
2015,09,23,04,12,9.20
2015,09,23,04,13,9.20
2015,09,23,04,14,9.20
2015,09,23,04,15,9.20
2015,09,23,04,16,9.20
2015,09,23,04,17,9.20
2015,09,23,04,18,9.20
2015,09,23,04,19,9.20
2015,09,23,04,20,9.30
2015,09,23,04,21,9.30
2015,09,23,04,22,9.30
2015,09,23,04,23,9.30
2015,09,23,04,24,9.30
2015,09,23,04,25,9.40
2015,09,23,04,26,9.40
2015,09,23,04,27,9.40
2015,09,23,04,28,9.50
2015,09,23,04,29,9.60
2015,09,23,04,30,9.60
2015,09,23,04,31,9.60
2015,09,23,04,32,9.60
2015,09,23,04,33,9.60
2015,09,23,04,34,9.60
2015,09,23,04,35,9.60
2015,09,23,04,36,9.60
2015,09,23,04,37,9.60
2015,09,23,04,38,9.60
2015,09,23,04,39,9.60
2015,09,23,04,40,9.60
2015,09,23,04,41,9.60
2015,09,23,04,42,9.60
2015,09,23,04,43,9.60
2015,09,23,04,44,9.60
2015,09,23,04,45,9.60
2015,09,23,04,46,9.70
2015,09,23,04,47,9.70
2015,09,23,04,48,9.70
2015,09,23,04,49,9.70
2015,09,23,04,50,9.70
2015,09,23,04,51,9.70
2015,09,23,04,52,9.70
2015,09,23,04,53,9.70
2015,09,23,04,54,9.70
2015,09,23,04,55,9.70
2015,09,23,04,56,9.70
2015,09,23,04,57,9.70
2015,09,23,04,58,9.70
2015,09,23,04,59,9.70
2015,09,23,05,00,9.70
2015,09,23,05,01,9.70
2015,09,23,05,02,9.70
2015,09,23,05,03,9.70
2015,09,23,05,04,9.70
2015,09,23,05,05,9.60
2015,09,23,05,06,9.60
2015,09,23,05,07,9.60
2015,09,23,05,08,9.60
2015,09,23,05,09,9.60
2015,09,23,05,10,9.60
2015,09,23,05,11,9.50
2015,09,23,05,12,9.50
2015,09,23,05,13,9.40
2015,09,23,05,14,9.40
2015,09,23,05,15,9.40
2015,09,23,05,16,9.40
2015,09,23,05,17,9.40
2015,09,23,05,18,9.40
2015,09,23,05,19,9.40
2015,09,23,05,20,9.40
2015,09,23,05,21,9.40
2015,09,23,05,22,9.40
2015,09,23,05,23,9.40
2015,09,23,05,24,9.40
2015,09,23,05,25,9.30
2015,09,23,05,26,9.30
2015,09,23,05,27,9.30
2015,09,23,05,28,9.30
2015,09,23,05,29,9.30
2015,09,23,05,30,9.30
2015,09,23,05,31,9.30
2015,09,23,05,32,9.30
2015,09,23,05,33,9.20
2015,09,23,05,34,9.20
2015,09,23,05,35,9.20
2015,09,23,05,36,9.20
2015,09,23,05,37,9.20
2015,09,23,05,38,9.20
2015,09,23,05,39,9.20
2015,09,23,05,40,9.20
2015,09,23,05,41,9.20
2015,09,23,05,42,9.20
2015,09,23,05,43,9.20
2015,09,23,05,44,9.20
2015,09,23,05,45,9.10
2015,09,23,05,46,9.10
2015,09,23,05,47,9.10
2015,09,23,05,48,9.10
2015,09,23,05,49,9.10
2015,09,23,05,50,9.10
2015,09,23,05,51,9.10
2015,09,23,05,52,9.00
2015,09,23,05,53,9.00
2015,09,23,05,54,9.00
2015,09,23,05,55,9.00
2015,09,23,05,56,8.90
2015,09,23,05,57,8.90
2015,09,23,05,58,8.90
2015,09,23,05,59,8.90
2015,09,23,06,00,8.90
2015,09,23,06,01,8.80
2015,09,23,06,02,8.80
2015,09,23,06,03,8.80
2015,09,23,06,04,8.80
2015,09,23,06,05,8.80
2015,09,23,06,06,8.80
2015,09,23,06,07,8.80
2015,09,23,06,08,8.70
2015,09,23,06,09,8.70
2015,09,23,06,10,8.70
2015,09,23,06,11,8.70
2015,09,23,06,12,8.70
2015,09,23,06,13,8.70
2015,09,23,06,14,8.70
2015,09,23,06,15,8.70
2015,09,23,06,16,8.70
2015,09,23,06,17,8.70
2015,09,23,06,18,8.70
2015,09,23,06,19,8.70
2015,09,23,06,20,8.60
2015,09,23,06,21,8.60
2015,09,23,06,22,8.60
2015,09,23,06,23,8.60
2015,09,23,06,24,8.60
2015,09,23,06,25,8.60
2015,09,23,06,26,8.60
2015,09,23,06,27,8.50
2015,09,23,06,28,8.50
2015,09,23,06,29,8.50
2015,09,23,06,30,8.50
2015,09,23,06,31,8.40
2015,09,23,06,32,8.40
2015,09,23,06,33,8.40
2015,09,23,06,34,8.40
2015,09,23,06,35,8.30
2015,09,23,06,36,8.30
2015,09,23,06,37,8.30
2015,09,23,06,38,8.30
2015,09,23,06,39,8.30
2015,09,23,06,40,8.30
2015,09,23,06,41,8.40
2015,09,23,06,42,8.40
2015,09,23,06,43,8.40
2015,09,23,06,44,8.40
2015,09,23,06,45,8.40
2015,09,23,06,46,8.40
2015,09,23,06,47,8.40
2015,09,23,06,48,8.50
2015,09,23,06,49,8.50
2015,09,23,06,50,8.50
2015,09,23,06,51,8.50
2015,09,23,06,52,8.60
2015,09,23,06,53,8.60
2015,09,23,06,54,8.60
2015,09,23,06,55,8.60
2015,09,23,06,56,8.60
2015,09,23,06,57,8.60
2015,09,23,06,58,8.60
2015,09,23,06,59,8.60
2015,09,23,07,00,8.60
2015,09,23,07,01,8.60
2015,09,23,07,02,8.60
2015,09,23,07,03,8.50
2015,09,23,07,04,8.50
2015,09,23,07,05,8.40
2015,09,23,07,06,8.40
2015,09,23,07,07,8.40
2015,09,23,07,08,8.40
2015,09,23,07,09,8.40
2015,09,23,07,10,8.40
2015,09,23,07,11,8.40
2015,09,23,07,12,8.40
2015,09,23,07,13,8.40
2015,09,23,07,14,8.40
2015,09,23,07,15,8.40
2015,09,23,07,16,8.40
2015,09,23,07,17,8.40
2015,09,23,07,18,8.40
2015,09,23,07,19,8.40
2015,09,23,07,20,8.40
2015,09,23,07,21,8.40
2015,09,23,07,22,8.40
2015,09,23,07,23,8.40
2015,09,23,07,24,8.40
2015,09,23,07,25,8.40
2015,09,23,07,26,8.40
2015,09,23,07,27,8.40
2015,09,23,07,28,8.50
2015,09,23,07,29,8.50
2015,09,23,07,30,8.60
2015,09,23,07,31,8.50
2015,09,23,07,32,8.50
2015,09,23,07,33,8.50
2015,09,23,07,34,8.60
2015,09,23,07,35,8.60
2015,09,23,07,36,8.70
2015,09,23,07,37,8.70
2015,09,23,07,38,8.70
2015,09,23,07,39,8.80
2015,09,23,07,40,8.80
2015,09,23,07,41,8.90
2015,09,23,07,42,8.90
2015,09,23,07,43,9.00
2015,09,23,07,44,9.10
2015,09,23,07,45,9.20
2015,09,23,07,46,9.30
2015,09,23,07,47,9.30
2015,09,23,07,48,9.40
2015,09,23,07,49,9.50
2015,09,23,07,50,9.60
2015,09,23,07,51,9.60
2015,09,23,07,52,9.70
2015,09,23,07,53,9.70
2015,09,23,07,54,9.80
2015,09,23,07,55,9.80
2015,09,23,07,56,9.90
2015,09,23,07,57,9.90
2015,09,23,07,58,10.00
2015,09,23,07,59,10.00
2015,09,23,08,00,10.10
2015,09,23,08,01,10.10
2015,09,23,08,02,10.10
2015,09,23,08,03,10.10
2015,09,23,08,04,10.20
2015,09,23,08,05,10.20
2015,09,23,08,06,10.20
2015,09,23,08,07,10.20
2015,09,23,08,08,10.20
2015,09,23,08,09,10.30
2015,09,23,08,10,10.30
2015,09,23,08,11,10.30
2015,09,23,08,12,10.30
2015,09,23,08,13,10.30
2015,09,23,08,14,10.30
2015,09,23,08,15,10.30
2015,09,23,08,16,10.30
2015,09,23,08,17,10.30
2015,09,23,08,18,10.30
2015,09,23,08,19,10.40
2015,09,23,08,20,10.40
2015,09,23,08,21,10.40
2015,09,23,08,22,10.40
2015,09,23,08,23,10.40
2015,09,23,08,24,10.40
2015,09,23,08,25,10.40
2015,09,23,08,26,10.40
2015,09,23,08,27,10.40
2015,09,23,08,28,10.40
2015,09,23,08,29,10.40
2015,09,23,08,30,10.40
2015,09,23,08,31,10.40
2015,09,23,08,32,10.40
2015,09,23,08,33,10.50
2015,09,23,08,34,10.50
2015,09,23,08,35,10.60
2015,09,23,08,36,10.60
2015,09,23,08,37,10.60
2015,09,23,08,38,10.60
2015,09,23,08,39,10.60
2015,09,23,08,40,10.60
2015,09,23,08,41,10.60
2015,09,23,08,42,10.70
2015,09,23,08,43,10.70
2015,09,23,08,44,10.70
2015,09,23,08,45,10.70
2015,09,23,08,46,10.70
2015,09,23,08,47,10.70
2015,09,23,08,48,10.70
2015,09,23,08,49,10.80
2015,09,23,08,50,10.80
2015,09,23,08,51,10.80
2015,09,23,08,52,10.80
2015,09,23,08,53,10.80
2015,09,23,08,54,10.80
2015,09,23,08,55,10.80
2015,09,23,08,56,10.80
2015,09,23,08,57,10.80
2015,09,23,08,58,10.90
2015,09,23,08,59,10.90
2015,09,23,09,00,10.90
2015,09,23,09,01,10.90
2015,09,23,09,02,10.90
2015,09,23,09,03,11.00
2015,09,23,09,04,11.00
2015,09,23,09,05,11.00
2015,09,23,09,06,11.00
2015,09,23,09,07,11.10
2015,09,23,09,08,11.10
2015,09,23,09,09,11.10
2015,09,23,09,10,11.10
2015,09,23,09,11,11.20
2015,09,23,09,12,11.20
2015,09,23,09,13,11.20
2015,09,23,09,14,11.20
2015,09,23,09,15,11.20
2015,09,23,09,16,11.30
2015,09,23,09,17,11.30
2015,09,23,09,18,11.30
2015,09,23,09,19,11.30
2015,09,23,09,20,11.40
2015,09,23,09,21,11.40
2015,09,23,09,22,11.40
2015,09,23,09,23,11.50
2015,09,23,09,24,11.50
2015,09,23,09,25,11.50
2015,09,23,09,26,11.50
2015,09,23,09,27,11.60
2015,09,23,09,28,11.60
2015,09,23,09,29,11.60
2015,09,23,09,30,11.60
2015,09,23,09,31,11.70
2015,09,23,09,32,11.70
2015,09,23,09,33,11.70
2015,09,23,09,34,11.70
2015,09,23,09,35,11.80
2015,09,23,09,36,11.80
2015,09,23,09,37,11.80
2015,09,23,09,38,11.80
2015,09,23,09,39,11.80
2015,09,23,09,40,11.80
2015,09,23,09,41,11.90
2015,09,23,09,42,11.90
2015,09,23,09,43,11.90
2015,09,23,09,44,11.90
2015,09,23,09,45,11.90
2015,09,23,09,46,11.90
2015,09,23,09,47,12.00
2015,09,23,09,48,12.00
2015,09,23,09,49,12.00
2015,09,23,09,50,12.00
2015,09,23,09,51,12.00
2015,09,23,09,52,12.10
2015,09,23,09,53,12.10
2015,09,23,09,54,12.10
2015,09,23,09,55,12.10
2015,09,23,09,56,12.10
2015,09,23,09,57,12.10
2015,09,23,09,58,12.10
2015,09,23,09,59,12.10
2015,09,23,10,00,12.10
2015,09,23,10,01,12.10
2015,09,23,10,02,12.10
2015,09,23,10,03,12.10
2015,09,23,10,04,12.20
2015,09,23,10,05,12.20
2015,09,23,10,06,12.20
2015,09,23,10,07,12.20
2015,09,23,10,08,12.30
2015,09,23,10,09,12.30
2015,09,23,10,10,12.30
2015,09,23,10,11,12.30
2015,09,23,10,12,12.30
2015,09,23,10,13,12.40
2015,09,23,10,14,12.40
2015,09,23,10,15,12.40
2015,09,23,10,16,12.40
2015,09,23,10,17,12.50
2015,09,23,10,18,12.50
2015,09,23,10,19,12.60
2015,09,23,10,20,12.60
2015,09,23,10,21,12.60
2015,09,23,10,22,12.60
2015,09,23,10,23,12.70
2015,09,23,10,24,12.70
2015,09,23,10,25,12.70
2015,09,23,10,26,12.80
2015,09,23,10,27,12.80
2015,09,23,10,28,12.80
2015,09,23,10,29,12.80
2015,09,23,10,30,12.80
2015,09,23,10,31,12.90
2015,09,23,10,32,12.90
2015,09,23,10,33,12.90
2015,09,23,10,34,12.90
2015,09,23,10,35,13.00
2015,09,23,10,36,13.00
2015,09,23,10,37,13.10
2015,09,23,10,38,13.20
2015,09,23,10,39,13.20
2015,09,23,10,40,13.30
2015,09,23,10,41,13.30
2015,09,23,10,42,13.40
2015,09,23,10,43,13.40
2015,09,23,10,44,13.40
2015,09,23,10,45,13.50
2015,09,23,10,46,13.50
2015,09,23,10,47,13.60
2015,09,23,10,48,13.60
2015,09,23,10,49,13.60
2015,09,23,10,50,13.70
2015,09,23,10,51,13.70
2015,09,23,10,52,13.70
2015,09,23,10,53,13.80
2015,09,23,10,54,13.80
2015,09,23,10,55,13.80
2015,09,23,10,56,13.90
2015,09,23,10,57,13.90
2015,09,23,10,58,14.00
2015,09,23,10,59,14.00
2015,09,23,11,00,14.10
2015,09,23,11,01,14.10
2015,09,23,11,02,14.10
2015,09,23,11,03,14.10
2015,09,23,11,04,14.20
2015,09,23,11,05,14.20
2015,09,23,11,06,14.20
2015,09,23,11,07,14.20
2015,09,23,11,08,14.20
2015,09,23,11,09,14.30
2015,09,23,11,10,14.30
2015,09,23,11,11,14.30
2015,09,23,11,12,14.30
2015,09,23,11,13,14.30
2015,09,23,11,14,14.40
2015,09,23,11,15,14.30
2015,09,23,11,16,14.30
2015,09,23,11,17,14.20
2015,09,23,11,18,14.10
2015,09,23,11,19,13.90
2015,09,23,11,20,13.80
2015,09,23,11,21,13.80
2015,09,23,11,22,13.70
2015,09,23,11,23,13.70
2015,09,23,11,24,13.60
2015,09,23,11,25,13.60
2015,09,23,11,26,13.60
2015,09,23,11,27,13.50
2015,09,23,11,28,13.50
2015,09,23,11,29,13.50
2015,09,23,11,30,13.50
2015,09,23,11,31,13.50
2015,09,23,11,32,13.50
2015,09,23,11,33,13.50
2015,09,23,11,34,13.60
2015,09,23,11,35,13.60
2015,09,23,11,36,13.60
2015,09,23,11,37,13.70
2015,09,23,11,38,13.70
2015,09,23,11,39,13.70
2015,09,23,11,40,13.60
2015,09,23,11,41,13.70
2015,09,23,11,42,13.70
2015,09,23,11,43,13.80
2015,09,23,11,44,13.80
2015,09,23,11,45,13.90
2015,09,23,11,46,13.90
2015,09,23,11,47,14.00
2015,09,23,11,48,14.10
2015,09,23,11,49,14.10
2015,09,23,11,50,14.10
2015,09,23,11,51,14.20
2015,09,23,11,52,14.30
2015,09,23,11,53,14.30
2015,09,23,11,54,14.40
2015,09,23,11,55,14.40
2015,09,23,11,56,14.50
2015,09,23,11,57,14.50
2015,09,23,11,58,14.50
2015,09,23,11,59,14.60
2015,09,23,12,00,14.60
2015,09,23,12,01,14.60
2015,09,23,12,02,14.70
2015,09,23,12,03,14.70
2015,09,23,12,04,14.70
2015,09,23,12,05,14.70
2015,09,23,12,06,14.70
2015,09,23,12,07,14.80
2015,09,23,12,08,14.80
2015,09,23,12,09,14.80
2015,09,23,12,10,14.90
2015,09,23,12,11,14.90
2015,09,23,12,12,14.90
2015,09,23,12,13,15.00
2015,09,23,12,14,15.00
2015,09,23,12,15,15.10
2015,09,23,12,16,15.10
2015,09,23,12,17,15.20
2015,09,23,12,18,15.20
2015,09,23,12,19,15.20
2015,09,23,12,20,15.20
2015,09,23,12,21,15.20
2015,09,23,12,22,15.20
2015,09,23,12,23,15.20
2015,09,23,12,24,15.20
2015,09,23,12,25,15.20
2015,09,23,12,26,15.20
2015,09,23,12,27,15.20
2015,09,23,12,28,15.10
2015,09,23,12,29,15.00
2015,09,23,12,30,14.90
2015,09,23,12,31,14.90
2015,09,23,12,32,14.80
2015,09,23,12,33,14.80
2015,09,23,12,34,14.80
2015,09,23,12,35,14.80
2015,09,23,12,36,14.80
2015,09,23,12,37,14.80
2015,09,23,12,38,14.80
2015,09,23,12,39,14.80
2015,09,23,12,40,14.80
2015,09,23,12,41,14.80
2015,09,23,12,42,14.80
2015,09,23,12,43,14.80
2015,09,23,12,44,14.80
2015,09,23,12,45,14.80
2015,09,23,12,46,14.80
2015,09,23,12,47,14.80
2015,09,23,12,48,14.80
2015,09,23,12,49,14.80
2015,09,23,12,50,14.80
2015,09,23,12,51,14.80
2015,09,23,12,52,14.80
2015,09,23,12,53,14.90
2015,09,23,12,54,14.90
2015,09,23,12,55,15.00
2015,09,23,12,56,15.00
2015,09,23,12,57,15.10
2015,09,23,12,58,15.20
2015,09,23,12,59,15.20
2015,09,23,13,00,15.30
2015,09,23,13,01,15.30
2015,09,23,13,02,15.30
2015,09,23,13,03,15.30
2015,09,23,13,04,15.30
2015,09,23,13,05,15.30
2015,09,23,13,06,15.30
2015,09,23,13,07,15.30
2015,09,23,13,08,15.30
2015,09,23,13,09,15.40
2015,09,23,13,10,15.40
2015,09,23,13,11,15.50
2015,09,23,13,12,15.50
2015,09,23,13,13,15.60
2015,09,23,13,14,15.60
2015,09,23,13,15,15.70
2015,09,23,13,16,15.70
2015,09,23,13,17,15.70
2015,09,23,13,18,15.70
2015,09,23,13,19,15.80
2015,09,23,13,20,15.80
2015,09,23,13,21,15.80
2015,09,23,13,22,15.80
2015,09,23,13,23,15.80
2015,09,23,13,24,15.80
2015,09,23,13,25,15.80
2015,09,23,13,26,15.70
2015,09,23,13,27,15.70
2015,09,23,13,28,15.70
2015,09,23,13,29,15.70
2015,09,23,13,30,15.60
2015,09,23,13,31,15.60
2015,09,23,13,32,15.50
2015,09,23,13,33,15.40
2015,09,23,13,34,15.30
2015,09,23,13,35,15.30
2015,09,23,13,36,15.20
2015,09,23,13,37,15.10
2015,09,23,13,38,15.10
2015,09,23,13,39,15.00
2015,09,23,13,40,15.00
2015,09,23,13,41,15.00
2015,09,23,13,42,15.00
2015,09,23,13,43,15.10
2015,09,23,13,44,15.10
2015,09,23,13,45,15.20
2015,09,23,13,46,15.30
2015,09,23,13,47,15.40
2015,09,23,13,48,15.50
2015,09,23,13,49,15.50
2015,09,23,13,50,15.60
2015,09,23,13,51,15.60
2015,09,23,13,52,15.70
2015,09,23,13,53,15.70
2015,09,23,13,54,15.60
2015,09,23,13,55,15.60
2015,09,23,13,56,15.60
2015,09,23,13,57,15.50
2015,09,23,13,58,15.50
2015,09,23,13,59,15.40
2015,09,23,14,00,15.50
2015,09,23,14,01,15.50
2015,09,23,14,02,15.60
2015,09,23,14,03,15.50
2015,09,23,14,04,15.50
2015,09,23,14,05,15.50
2015,09,23,14,06,15.40
2015,09,23,14,07,15.40
2015,09,23,14,08,15.40
2015,09,23,14,09,15.30
2015,09,23,14,10,15.30
2015,09,23,14,11,15.30
2015,09,23,14,12,15.20
2015,09,23,14,13,15.20
2015,09,23,14,14,15.20
2015,09,23,14,15,15.20
2015,09,23,14,16,15.20
2015,09,23,14,17,15.20
2015,09,23,14,18,15.20
2015,09,23,14,19,15.20
2015,09,23,14,20,15.20
2015,09,23,14,21,15.20
2015,09,23,14,22,15.20
2015,09,23,14,23,15.20
2015,09,23,14,24,15.20
2015,09,23,14,25,15.20
2015,09,23,14,26,15.20
2015,09,23,14,27,15.30
2015,09,23,14,28,15.30
2015,09,23,14,29,15.30
2015,09,23,14,30,15.30
2015,09,23,14,31,15.30
2015,09,23,14,32,15.30
2015,09,23,14,33,15.30
2015,09,23,14,34,15.30
2015,09,23,14,35,15.30
2015,09,23,14,36,15.30
2015,09,23,14,37,15.30
2015,09,23,14,38,15.40
2015,09,23,14,39,15.40
2015,09,23,14,40,15.50
2015,09,23,14,41,15.50
2015,09,23,14,42,15.60
2015,09,23,14,43,15.60
2015,09,23,14,44,15.60
2015,09,23,14,45,15.70
2015,09,23,14,46,15.70
2015,09,23,14,47,15.70
2015,09,23,14,48,15.80
2015,09,23,14,49,15.80
2015,09,23,14,50,15.80
2015,09,23,14,51,15.80
2015,09,23,14,52,15.80
2015,09,23,14,53,15.80
2015,09,23,14,54,15.80
2015,09,23,14,55,15.80
2015,09,23,14,56,15.80
2015,09,23,14,57,15.70
2015,09,23,14,58,15.70
2015,09,23,14,59,15.70
2015,09,23,15,00,15.80
2015,09,23,15,01,15.80
2015,09,23,15,02,15.80
2015,09,23,15,03,15.80
2015,09,23,15,04,15.90
2015,09,23,15,05,15.90
2015,09,23,15,06,15.90
2015,09,23,15,07,15.90
2015,09,23,15,08,15.90
2015,09,23,15,09,15.90
2015,09,23,15,10,15.90
2015,09,23,15,11,15.90
2015,09,23,15,12,15.90
2015,09,23,15,13,15.90
2015,09,23,15,14,16.00
2015,09,23,15,15,16.00
2015,09,23,15,16,16.00
2015,09,23,15,17,16.10
2015,09,23,15,18,16.00
2015,09,23,15,19,16.00
2015,09,23,15,20,16.00
2015,09,23,15,21,15.90
2015,09,23,15,22,15.90
2015,09,23,15,23,15.90
2015,09,23,15,24,15.90
2015,09,23,15,25,15.90
2015,09,23,15,26,15.90
2015,09,23,15,27,15.90
2015,09,23,15,28,15.90
2015,09,23,15,29,15.90
2015,09,23,15,30,15.90
2015,09,23,15,31,16.00
2015,09,23,15,32,16.00
2015,09,23,15,33,16.00
2015,09,23,15,34,15.90
2015,09,23,15,35,15.90
2015,09,23,15,36,15.90
2015,09,23,15,37,15.90
2015,09,23,15,38,15.80
2015,09,23,15,39,15.80
2015,09,23,15,40,15.70
2015,09,23,15,41,15.70
2015,09,23,15,42,15.60
2015,09,23,15,43,15.60
2015,09,23,15,44,15.60
2015,09,23,15,45,15.60
2015,09,23,15,46,15.60
2015,09,23,15,47,15.70
2015,09,23,15,48,15.70
2015,09,23,15,49,15.70
2015,09,23,15,50,15.70
2015,09,23,15,51,15.70
2015,09,23,15,52,15.70
2015,09,23,15,53,15.70
2015,09,23,15,54,15.80
2015,09,23,15,55,15.80
2015,09,23,15,56,15.80
2015,09,23,15,57,15.80
2015,09,23,15,58,15.90
2015,09,23,15,59,15.90
2015,09,23,16,00,15.90
2015,09,23,16,01,15.90
2015,09,23,16,02,15.90
2015,09,23,16,03,15.90
2015,09,23,16,04,15.90
2015,09,23,16,05,16.00
2015,09,23,16,06,16.00
2015,09,23,16,07,16.00
2015,09,23,16,08,16.00
2015,09,23,16,09,16.00
2015,09,23,16,10,16.10
2015,09,23,16,11,16.10
2015,09,23,16,12,16.10
2015,09,23,16,13,16.20
2015,09,23,16,14,16.20
2015,09,23,16,15,16.20
2015,09,23,16,16,16.20
2015,09,23,16,17,16.20
2015,09,23,16,18,16.20
2015,09,23,16,19,16.30
2015,09,23,16,20,16.30
2015,09,23,16,21,16.30
2015,09,23,16,22,16.40
2015,09,23,16,23,16.40
2015,09,23,16,24,16.50
2015,09,23,16,25,16.50
2015,09,23,16,26,16.60
2015,09,23,16,27,16.60
2015,09,23,16,28,16.60
2015,09,23,16,29,16.70
2015,09,23,16,30,16.70
2015,09,23,16,31,16.70
2015,09,23,16,32,16.70
2015,09,23,16,33,16.70
2015,09,23,16,34,16.70
2015,09,23,16,35,16.70
2015,09,23,16,36,16.60
2015,09,23,16,37,16.60
2015,09,23,16,38,16.60
2015,09,23,16,39,16.60
2015,09,23,16,40,16.60
2015,09,23,16,41,16.60
2015,09,23,16,42,16.60
2015,09,23,16,43,16.60
2015,09,23,16,44,16.60
2015,09,23,16,45,16.60
2015,09,23,16,46,16.60
2015,09,23,16,47,16.60
2015,09,23,16,48,16.60
2015,09,23,16,49,16.70
2015,09,23,16,50,16.70
2015,09,23,16,51,16.70
2015,09,23,16,52,16.70
2015,09,23,16,53,16.70
2015,09,23,16,54,16.70
2015,09,23,16,55,16.70
2015,09,23,16,56,16.70
2015,09,23,16,57,16.70
2015,09,23,16,58,16.70
2015,09,23,16,59,16.70
2015,09,23,17,00,16.70
2015,09,23,17,01,16.70
2015,09,23,17,02,16.70
2015,09,23,17,03,16.70
2015,09,23,17,04,16.70
2015,09,23,17,05,16.70
2015,09,23,17,06,16.70
2015,09,23,17,07,16.70
2015,09,23,17,08,16.70
2015,09,23,17,09,16.80
2015,09,23,17,10,16.80
2015,09,23,17,11,16.80
2015,09,23,17,12,16.80
2015,09,23,17,13,16.80
2015,09,23,17,14,16.80
2015,09,23,17,15,16.80
2015,09,23,17,16,16.80
2015,09,23,17,17,16.80
2015,09,23,17,18,16.80
2015,09,23,17,19,16.90
2015,09,23,17,20,16.90
2015,09,23,17,21,16.90
2015,09,23,17,22,16.90
2015,09,23,17,23,16.90
2015,09,23,17,24,16.90
2015,09,23,17,25,16.90
2015,09,23,17,26,16.90
2015,09,23,17,27,16.90
2015,09,23,17,28,16.90
2015,09,23,17,29,16.90
2015,09,23,17,30,16.90
2015,09,23,17,31,16.90
2015,09,23,17,32,16.90
2015,09,23,17,33,16.90
2015,09,23,17,34,16.90
2015,09,23,17,35,16.80
2015,09,23,17,36,16.80
2015,09,23,17,37,16.80
2015,09,23,17,38,16.80
2015,09,23,17,39,16.80
2015,09,23,17,40,16.80
2015,09,23,17,41,16.80
2015,09,23,17,42,16.80
2015,09,23,17,43,16.80